Location: Harburg
(48.7667°N, 10.6667°E)
Time: 02:57:30
(UTC+00:00)

Cosmos 2263 Rocket - Pass Details

Date: 18 September 2020
Orbit: 822 x 850 km, 71.0° (Epoch: 24 October)

Event Time Altitude Azimuth Distance (km) Brightness Sun altitude
Rises 19:32:30 0° 240° (WSW) 3,352 5.7 -21.2°
Reaches altitude 10° 19:35:11 10° 250° (WSW) 2,425 5.1 -21.6°
Maximum altitude 19:40:05 31° 312° (NW) 1,421 4.0 -22.3°
Drops below altitude 10° 19:45:02 10° 14° (NNE) 2,450 4.8 -23.0°
Sets 19:47:47 0° 25° (NNE) 3,392 5.4 -23.4°
